TimeEST,TemperatureF,Dew PointF,Humidity,Sea Level PressureIn,VisibilityMPH,Wind Direction,Wind SpeedMPH,Gust SpeedMPH,PrecipitationIn,Events,Conditions,WindDirDegrees,DateUTC
12:53 AM,30.9,23.0,72,30.10,10.0,North,3.5,-,N/A,,Clear,350,2014-03-07 05:53:00
1:53 AM,30.9,23.0,72,30.09,10.0,North,3.5,-,N/A,,Clear,10,2014-03-07 06:53:00
2:53 AM,28.9,21.9,75,30.05,10.0,ENE,8.1,-,N/A,,Clear,70,2014-03-07 07:53:00
3:53 AM,30.9,21.9,69,30.04,10.0,East,5.8,-,N/A,,Clear,80,2014-03-07 08:53:00
4:53 AM,30.0,21.9,72,30.04,10.0,ENE,5.8,-,N/A,,Clear,70,2014-03-07 09:53:00
5:53 AM,28.0,21.0,75,30.05,10.0,East,3.5,-,N/A,,Clear,90,2014-03-07 10:53:00
6:53 AM,28.9,21.9,75,30.08,10.0,NW,5.8,-,N/A,,Clear,320,2014-03-07 11:53:00
7:53 AM,28.9,23.0,78,30.07,10.0,East,4.6,-,N/A,,Clear,80,2014-03-07 12:53:00
8:53 AM,37.0,26.1,65,30.08,10.0,SE,4.6,-,N/A,,Clear,130,2014-03-07 13:53:00
9:53 AM,41.0,28.0,60,30.08,10.0,South,9.2,-,N/A,,Clear,180,2014-03-07 14:53:00
10:53 AM,45.0,30.0,56,30.04,10.0,South,8.1,-,N/A,,Clear,170,2014-03-07 15:53:00
11:53 AM,48.0,28.0,46,30.04,10.0,Variable,4.6,-,N/A,,Clear,0,2014-03-07 16:53:00
12:53 PM,51.1,28.0,41,30.01,10.0,Calm,Calm,-,N/A,,Clear,0,2014-03-07 17:53:00
1:53 PM,54.0,28.9,38,29.99,10.0,Variable,3.5,-,N/A,,Unknown,0,2014-03-07 18:53:00
3:53 PM,55.9,28.0,34,29.96,10.0,WNW,10.4,-,N/A,,Clear,290,2014-03-07 20:53:00
4:53 PM,55.0,28.9,37,29.95,10.0,SSW,3.5,-,N/A,,Clear,200,2014-03-07 21:53:00
5:53 PM,55.0,28.9,37,29.96,10.0,WSW,4.6,-,N/A,,Clear,250,2014-03-07 22:53:00
6:53 PM,51.1,28.9,43,29.96,10.0,Calm,Calm,-,N/A,,Clear,0,2014-03-07 23:53:00
7:53 PM,46.0,28.9,51,29.96,10.0,Calm,Calm,-,N/A,,Clear,0,2014-03-08 00:53:00
8:53 PM,46.0,28.9,51,29.95,10.0,South,3.5,-,N/A,,Clear,180,2014-03-08 01:53:00
9:53 PM,43.0,28.9,58,29.97,10.0,Calm,Calm,-,N/A,,Clear,0,2014-03-08 02:53:00
10:53 PM,42.1,28.9,60,29.97,10.0,Calm,Calm,-,N/A,,Clear,0,2014-03-08 03:53:00
11:53 PM,44.1,28.9,55,29.97,10.0,Calm,Calm,-,N/A,,Clear,0,2014-03-08 04:53:00